Location: Caltech
(34.1382°N, 118.1253°W)
Time: 13:34:13
(UTC-08:00)

Hamsat - Visible Passes

Search period start: 30 January 2015 00:00
Search period end: 09 February 2015 00:00
Orbit: 590 x 626 km, 97.6° (Epoch: 29 January)

Date Brightness Start Highest point End Pass type
(mag) Time Alt. Az. Time Alt. Az. Time Alt. Az.
30 Jan ? 05:48:22 10° N 05:52:25 50° WNW 05:56:27 10° SSW visible
31 Jan ? 04:27:36 10° ENE 04:29:56 15° E 04:32:28 10° SE visible
31 Jan ? 06:02:14 10° N 06:06:01 34° WNW 06:09:46 10° SW visible
01 Feb ? 04:40:30 10° NE 04:43:43 22° E 04:47:02 10° SSE visible
01 Feb ? 06:16:14 10° NNW 06:19:37 23° WNW 06:22:54 10° SW visible
02 Feb ? 04:53:42 10° NNE 04:57:26 32° E 05:01:13 10° SSE visible
03 Feb ? 05:07:05 10° NNE 05:11:08 48° E 05:15:11 10° S visible
04 Feb ? 05:20:36 10° NNE 05:24:47 73° E 05:28:57 10° S visible
04 Feb ? 17:46:58 10° SW 17:49:51 17° W 17:52:33 10° NW visible
05 Feb ? 05:34:13 10° N 05:38:24 75° WNW 05:42:34 10° SSW visible
05 Feb ? 18:02:03 10° WSW 18:03:37 11° W 18:04:55 10° WNW visible
06 Feb ? 04:15:18 10° E 04:15:42 10° E 04:16:24 10° E visible
06 Feb ? 05:47:56 10° N 05:51:59 49° WNW 05:56:02 10° SSW visible
07 Feb ? 04:27:04 10° ENE 04:29:29 15° E 04:32:05 10° SE visible
07 Feb ? 06:01:46 10° N 06:05:33 33° WNW 06:09:19 10° SW visible
08 Feb ? 04:39:57 10° NE 04:43:13 22° E 04:46:35 10° SSE visible
08 Feb ? 06:15:43 10° NNW 06:19:06 23° WNW 06:22:24 10° SW visible
